Regional Weather Roundup
Issued by NWS

Home | Current Version | Previous Version | Text Only | Print | Product List | Glossary Off
Versions: 1 2 3 4 5 6 7 8 9 10 11 12 13 14 15 16 17 18 19 20 21 22 23 24 25 26 27 28 29 30 31 32 33 34 35 36 37 38 39 40 41 42 43 44 45 46 47 48 49 50

000
ASUS43 KMPX 250410
RWRMN
WEATHER ROUNDUP FOR MINNESOTA
NATIONAL WEATHER SERVICE TWIN CITIES/CHANHASSEN MN
1100 PM CDT SUN SEP 24 2017


NOTE: "FAIR" INDICATES FEW OR NO CLOUDS BELOW 12,000 FEET WITH NO
SIGNIFICANT WEATHER AND/OR OBSTRUCTIONS TO VISIBILITY. N/A MEANS
CURRENT SKY AND/OR WEATHER CONDITIONS ARE NOT AVAILABLE.

MNZ060>063-068>070-250500-
   Twin Cities Metro

CITY           SKY/WX    TMP DP  RH WIND       PRES   REMARKS
TWIN CITIES    MOCLDY    73  66  78 W7        29.92R
ST PAUL        MOCLDY    71  67  87 W7        29.92R
CRYSTAL        MOCLDY    70  63  78 SW7       29.92R
BLAINE         MOCLDY    72  70  94 SW6       29.93R
LAKEVILLE      PTCLDY    70  64  83 W5        29.93R
EDEN PRAIRIE   CLOUDY    70  66  87 W3        29.92R
SOUTH ST PAUL  CLOUDY    73  64  72 W8        29.92S
LAKE ELMO      FAIR      72  64  78 CALM      29.92F
$$
MNZ001>005-007-008-013>017-022>024-027-028-250500-
   Northwest Minnesota

CITY           SKY/WX    TMP DP  RH WIND       PRES   REMARKS
BEMIDJI        CLOUDY    51  50  97 W12       29.95R
HALLOCK        CLOUDY    50  48  93 NW13      29.99R
ROSEAU         CLOUDY    50  45  81 W9        29.95R HAZE
WARROAD        CLOUDY    48  45  87 W8        29.94R FOG
THIEF RVR FALL CLOUDY    49  48  97 NW14      29.99R
CROOKSTON      CLOUDY    50  48  93 NW10      30.01R
FOSSTON        CLOUDY    46  46 100 W12G18    29.98S
DETROIT LAKES  CLOUDY    50  50 100 NW14      30.00R
MOORHEAD       CLOUDY    50  48  93 NW7       30.02R
PARK RAPIDS    CLOUDY    54  51  90 NW13      29.95S
MAHNOMEN       DRIZZLE   49  48  97 NW10G16   29.99R
$$
MNZ006-009>011-018-025>026-250500-
   North Central Minnesota

CITY           SKY/WX    TMP DP  RH WIND       PRES   REMARKS
BAUDETTE       CLOUDY    52  52 100 W8        29.91R
FLAG ISLAND    CLOUDY    52  48  87 NW13      29.89R
INTL FALLS     MOCLDY    57  55  93 W8        29.87R
WASKISH        CLOUDY    54  52  94 W13       29.92R FOG
BIG FORK       CLOUDY    59  57  94 W6        29.90R
LONGVILLE      CLOUDY    57  57 100 W6        29.93R
GRAND RAPIDS   CLOUDY    63  60  90 W5        29.92R
CRANE LAKE     CLOUDY    64  64 100 W6        29.86R
ORR            CLOUDY    61  57  88 W7        29.85R
COOK           CLOUDY    66  64  94 SW6       29.87R
WALKER         CLOUDY    53  52  95 W8        29.95R
$$
MNZ012-019>021-037-250500-
   Northeast Minnesota

CITY           SKY/WX    TMP DP  RH WIND       PRES   REMARKS
DULUTH         PTCLDY    66  65  96 W8        29.88S
ELY            MOCLDY    66  64  94 S5        29.87R
HIBBING        CLOUDY    64  64 100 VRB3      29.88R FOG
EVELETH        CLOUDY    65  64  97 S5        29.88S
DULUTH HARBOR  CLOUDY    66  64  94 CALM      29.86F
TWO HARBORS    LGT RAIN  70  64  83 SW5       29.86S
SILVER BAY     CLOUDY    68  66  94 S5        29.87
GRAND MARAIS     N/A     66  65  96 CALM      29.84S
G MARAIS ARPRT   N/A     64  61  88 SW3       29.91R
$$
MNZ029>031-032-039>041-046>048-054>057-064-250500-
   West Central Minnesota

CITY           SKY/WX    TMP DP  RH WIND       PRES   REMARKS
FERGUS FALLS   CLOUDY    52  52 100 N13       30.00S
WHEATON        CLOUDY    52  50  93 NW6       30.02S FOG
MORRIS         MOCLDY    54  52  94 N12G18    29.99R
ALEXANDRIA     CLOUDY    54  52  93 NW10      29.99R
ELBOW LAKE     CLOUDY    52  51  97 NW14      30.00S
WADENA         CLOUDY    52  52 100 NW7       29.97R FOG
GLENWOOD       MOCLDY    54  52  94 W15       29.99R
APPLETON       CLOUDY    55  52  88 N7        30.00R
BENSON         CLOUDY    55  52  88 N8        30.01R
ORTONVILLE     LGT RAIN  54  50  87 NW8       30.01R
MADISON        CLOUDY    57  57 100 NW9       30.01R
WILLMAR        LGT RAIN  57  55  94 NW10G16   29.99S
$$
MNZ033>034-036-042>043-049>051-058-059-250500-
   Central Minnesota

CITY           SKY/WX    TMP DP  RH WIND       PRES   REMARKS
ST CLOUD       LGT RAIN  64  64 100 W12       29.92F
SAUK CENTRE    CLOUDY    56  53  91 W8        29.98R
PAYNESVILLE    CLOUDY    58  56  94 W10       29.96F
AITKIN         CLOUDY    63  61  94 W6        29.91R
PINE RIVER     CLOUDY    54  52  94 W7        29.97S
BRAINERD       CLOUDY    61  58  90 W9        29.94R
STAPLES        CLOUDY    54  52  94 W10       29.96S
LONG PRAIRIE   CLOUDY    55  54  94 W10       29.97R
LITTLE FALLS   CLOUDY    59  54  82 W9        29.95R
LITCHFIELD     CLOUDY    63  63 100 NW10G16   29.95R
BUFFALO        LGT RAIN  67  64  90 W8        29.94S
MAPLE LAKE     RAIN      66  64  93 NW5       29.93F
HUTCHINSON     CLOUDY    63  62  95 W6        29.97R
$$
MNZ037-044-045-052-053-250500-
   East Central Minnesota

CITY           SKY/WX    TMP DP  RH WIND       PRES   REMARKS
PRINCETON      PTCLDY    68  66  94 W8        29.92R
MORA           CLOUDY    64  64 100 W7        29.92R
CAMBRIDGE      CLOUDY    70  66  88 CALM      29.91R
RUSH CITY      CLOUDY    67  65  94 CALM      29.90S
MOOSE LAKE     CLOUDY    64  63  94 CALM      29.87S
HINCKLEY       MOCLDY    66  66 100 SW3       29.90R
CLOQUET        MOCLDY    66  63  88 SW7       29.89R
MCGREGOR       CLOUDY    64  64 100 SW3       29.91R
$$
MNZ071>073-080-081-089-090-097-098-250500-
   Southwest Minnesota

CITY           SKY/WX    TMP DP  RH WIND       PRES   REMARKS
MONTEVIDEO     CLOUDY    57  54  88 N8        30.00R
GRANITE FALLS  CLOUDY    58  55  87 NW9       30.01R
CANBY          CLOUDY    56  53  92 NW7       30.02R FOG
MARSHALL       CLOUDY    58  54  86 N12       30.00R
REDWOOD FALLS  LGT RAIN  60  57  89 NW10      29.96F
OLIVIA         RAIN      55  54  94 NW10G16   29.96F
PIPESTONE      CLOUDY    57  54  88 N7        29.99F
WORTHINGTON    LGT RAIN  59  58  96 NW8       29.99S
JACKSON        MOCLDY    63  59  88 CALM      29.98R
TRACY          RAIN      59  58  97 NW7       29.99S
SLAYTON        LGT RAIN  57  52  81 NW6       30.01R
$$
MNZ065>067-074>077-082>085-091>093-250500-
   South Central Minnesota

CITY           SKY/WX    TMP DP  RH WIND       PRES   REMARKS
MANKATO        CLOUDY    68  64  88 NW10      29.96R
NEW ULM        MOCLDY    63  61  94 NW9       29.96R
ST JAMES       MOCLDY    63  61  94 NW5       29.97S
FAIRMONT       CLOUDY    67  64  90 N10       29.96S
FARIBAULT      MOCLDY    70  66  88 CALM      29.93F
OWATONNA       CLOUDY    70  66  88 CALM      29.94S
WASECA         CLOUDY    68  64  88 SW3       29.96R
ALBERT LEA     CLOUDY    73  66  78 W3        29.96R
$$
MNZ078>079-086>088-094>096-250500-
   Southeast Minnesota

CITY           SKY/WX    TMP DP  RH WIND       PRES   REMARKS
ROCHESTER      CLEAR     72  63  73 SW10      29.96R
RED WING       PTCLDY    75  63  64 CALM      29.90F
STANTON        LGT RAIN  70  67  90 CALM      29.92R
DODGE CENTER   CLOUDY    70  63  78 CALM      29.95R
WINONA         CLEAR     79  63  57 S5        29.92S
AUSTIN         PTCLDY    73  63  68 CALM      29.95S
PRESTON        CLEAR     70  62  74 S6        29.96R
$$
ABBREVIATIONS USED IN REMARKS
   TC - TEMPERATURES IN CELSIUS
  WCI - WIND CHILL INDEX
   HX - HEAT INDEX
  VSB - VISIBILITY
$$




USA.gov is the U.S. government's official web portal to all federal, state and local government web resources and services.